Location: Newark
(44.9333°N, 0.5667°E)
Time: 19:47:26
(UTC+00:00)

N. Korean satellite - Pass Details

Date: 21 December 2019
Orbit: 454 x 507 km, 97.2° (Epoch: 28 January)

Event Time Altitude Azimuth Distance (km) Brightness Sun altitude
Rises 05:01:09 0° 27° (NNE) 2,504 10.4 -25.7°
Reaches altitude 10° 05:03:39 10° 46° (NE) 1,614 9.6 -25.3°
Maximum altitude 05:06:11 19° 93° (E) 1,158 9.3 -24.8°
Drops below altitude 10° 05:08:41 10° 141° (SE) 1,593 9.8 -24.4°
Sets 05:11:08 0° 160° (SSE) 2,457 10.5 -24.0°
